Flag for Switzerland Weather past 2 weeks in Bellinzona, Ticino, Switzerland

Now
42 °F

Quite cool.


Feels Like: 42 °F
Forecast: 51 / 71 °F
Wind: 1 mph from North

Location: Locarno-Magadino

Current Time: Oct 24, 2014 at 10:33:34 AM

Latest Report: Oct 24, 2014 at 9:00 AM


Visibility: N/A

Pressure: 29.98 "Hg

Humidity: 81%

Dew point: 36 °F

Location of BellinzonaLocation

Historic Weather in Bellinzona — Graph

°F

Bellinzona temperature yesterday

Maximum temperature yesterday: 68 °F (at 3:00 PM)
Minimum temperature yesterday: 48 °F (at 2:00 AM)
Average temperature yesterday: 59 °F

Past Weeks' High & Low Weather Summary

 TemperatureHumidityPressure
High72 °F (Oct 17, 4:00 PM)100% (Oct 12, 9:00 PM)30.33 "Hg (Oct 12, 9:00 PM)
Low42 °F (Oct 24, 9:00 AM)22% (Oct 22, 2:00 AM)29.69 "Hg (Oct 21, 10:00 PM)
Average60 °F81%30.01 "Hg
* Reported Oct 9 9:00 AM — Oct 24 9:00 AM, Bellinzona, Weather by CustomWeather, © 2014

Note: Actual official high and low records may vary slightly from our data, if they occured in-between our weather recording intervals... More about our weather records

Advertising

Bellinzona weather history for previous 24 hours

 ConditionsComfort  
Time TempWeatherWind HumidityBarometerVisibility
9:00 AM
Oct 24
42 °FQuite cool.1 mph81%29.98 "HgN/A
8:00 AM42 °FQuite cool.2 mph77%29.97 "HgN/A
7:00 AM48 °FCool.3 mph60%29.96 "HgN/A
6:00 AM54 °FCool.3 mph42%29.94 "HgN/A
5:00 AM53 °FCool.5 mph46%29.93 "HgN/A
4:00 AM58 °FRefreshingly cool.10 mph36%29.93 "HgN/A
3:00 AM58 °FRefreshingly cool.12 mph35%29.94 "HgN/A
2:00 AM55 °FCool.7 mph44%29.93 "HgN/A
1:00 AM61 °FRefreshingly cool.17 mph32%29.93 "HgN/A
12:00 AM61 °FRefreshingly cool.16 mph30%29.93 "HgN/A
11:00 PM
Oct 23
61 °FRefreshingly cool.17 mph33%29.93 "HgN/A
10:00 PM62 °FRefreshingly cool.21 mph30%29.91 "HgN/A
9:00 PM62 °FRefreshingly cool.18 mph30%29.90 "HgN/A
8:00 PM62 °FRefreshingly cool.13 mph29%29.91 "HgN/A
7:00 PM62 °FRefreshingly cool.13 mph29%29.90 "HgN/A
6:00 PM66 °FMild.12 mph22%29.86 "HgN/A
5:00 PM67 °FMild.22 mph23%29.88 "HgN/A
4:00 PM67 °FMild.28 mph24%29.85 "HgN/A
3:00 PM68 °FMild.24 mph23%29.86 "HgN/A
2:00 PM67 °FMild.21 mph22%29.89 "HgN/A
1:00 PM67 °FMild.15 mph23%29.90 "HgN/A
12:00 PM65 °FMild.26 mph23%29.90 "HgN/A
11:00 AM65 °FMild.28 mph25%29.91 "HgN/A
10:00 AM61 °FRefreshingly cool.25 mph27%29.93 "HgN/A
Weather by CustomWeather, © 2014

See weather overviewHow to use our weather pages